IRIDIUM 55 [B] (25272 NORAD) Tracking and Keplerian Element Data

This shows tracking and keplerian element data for the satellite.

Feedback or suggestion? Click here.




ElementValue
Catalog25272
NameIRIDIUM 55 [B]
Epoch Orbit6272
Epoch Day198.91880933
Epoch Year2018
RAAN121.6405
Inclination86.4236
Eccentricity0.0002282
Argument of Perigee93.4202
Mean Anonmoly266.7257
Mean Motion14.38612158
Decay Rate1.62E-06
L11 25272U 98019A 18198.91880933 .00000162 00000-0 46480-4 0 9998
L22 25272 86.4236 121.6405 0002282 93.4202 266.7257 14.38612158 62723

Live tracking and technical data element details for IRIDIUM 55 [B] (NORAD 25272). IRIDIUM 55 [B] can be tracked NOW for your location showing map with azimuth and elevation plus other details from your city location.

Track the satellite on the map from your city or location and see movement details for azimuth, elevation, latitude, longitude, range, height, and movement on the map or in text.







IsCatalogInMostPopularTable: catalog: 25272, numindb: 32
Update: records affected: 1



GetName: 25272 IRIDIUM 55 [B]

Hit Count: updated at: Fri, 20 Jul 2018 07:00:16 GMT